Location: Olsztyn
(53.7767°N, 20.4765°E)
Time: 08:54:22
(UTC+01:00)

Transit 4A - Pass Details

Date: 01 October 2022
Orbit: 871 x 972 km, 66.8° (Epoch: 06 December)

Event Time Altitude Azimuth Distance (km) Brightness Sun altitude
Rises 05:25:23 0° 313° (NW) 3,533 10.6 -11.7°
Reaches altitude 10° 05:28:10 10° 322° (NW) 2,575 10.0 -11.3°
Maximum altitude 05:33:33 34° 27° (NNE) 1,417 9.3 -10.5°
Drops below altitude 10° 05:38:51 10° 92° (E) 2,529 11.7 -9.8°
Sets 05:41:33 0° 102° (ESE) 3,461 12.5 -9.4°
